Opa Locka, FL

11:50 PM EST on February 08, 2016 (GMT -0500)
Opa Locka

Weather History for KOPF - February, 2012

Change the Weather History Date:

Tuesday, February 28, 2012

  Actual Average Record
Temperature  
Mean Temperature 76 °F -  
Max Temperature 82 °F 78 °F 88 °F (2003)
Min Temperature 70 °F 59 °F 40 °F (1968)
Cooling Degree Days 11    
Growing Degree Days 26 (Base 50)    
Moisture  
Dew Point 67 °F    
Average Humidity 73    
Maximum Humidity 90    
Minimum Humidity 56    
Precipitation  
Precipitation 0.00 in - - ()
Sea Level Pressure  
Sea Level Pressure 30.22 in    
Wind  
Wind Speed 9 mph (East)    
Max Wind Speed 15 mph    
Max Gust Speed 21 mph    
Visibility 10 miles    
Events      
Averages and records for this station are not official NWS values.
T = Trace of Precipitation, MM = Missing Value Source: NWS Daily Summary

Daily Weather History Graph

Daily Weather History Graph

Search for Another Location

Airport or City:

Trip Planner

Search our weather history database for the weather conditions in past years. The results will help you decide how hot, cold, wet, or windy it might be!

Date:

Astronomy

Feb. 28, 2012 Rise Set
Actual Time 6:45 AM EST 6:21 PM EST
Civil Twilight 6:22 AM EST 6:45 PM EST
Nautical Twilight 5:55 AM EST 7:11 PM EST
Astronomical Twilight 5:29 AM EST 7:38 PM EST
Moon 10:34 AM EST (2/28) No Moon Set
Length of Visible Light 12h 22m
Length of Day
11h 36m
Waxing Crescent, 37% of the Moon is Illuminated
Feb 28
Waxing Crescent
Feb 29
First Quarter
Mar 8
Full
Mar 14
Last Quarter
Mar 22
New

Hourly Weather History & Observations

Time (EST) Temp. Heat Index Dew Point Humidity Pressure Visibility Wind Dir Wind Speed Gust Speed Precip Events Conditions
12:16 AM 75.2 °F - 68.0 °F 78% 30.25 in 10.0 mi ESE 10.4 mph - N/A   Mostly Cloudy
12:53 AM 75.0 °F - 68.0 °F 79% 30.24 in 10.0 mi East 10.4 mph - N/A   Clear
1:53 AM 75.0 °F - 68.0 °F 79% 30.24 in 10.0 mi ESE 8.1 mph - N/A   Clear
2:53 AM 72.0 °F - 66.9 °F 84% 30.22 in 10.0 mi ENE 5.8 mph - N/A   Partly Cloudy
3:53 AM 71.1 °F - 66.9 °F 87% 30.21 in 10.0 mi East 4.6 mph - N/A   Clear
4:53 AM 71.1 °F - 68.0 °F 90% 30.21 in 10.0 mi East 4.6 mph - N/A   Clear
5:53 AM 70.0 °F - 66.9 °F 90% 30.22 in 10.0 mi NE 3.5 mph - N/A   Clear
6:53 AM 70.0 °F - 66.9 °F 90% 30.23 in 10.0 mi Calm Calm - N/A   Clear
7:53 AM 75.0 °F - 69.1 °F 82% 30.24 in 10.0 mi East 4.6 mph - N/A   Clear
8:53 AM 79.0 °F - 66.9 °F 66% 30.25 in 10.0 mi ESE 9.2 mph - N/A   Partly Cloudy
9:53 AM 80.1 °F 82.3 °F 66.9 °F 64% 30.26 in 10.0 mi ESE 8.1 mph - N/A   Mostly Cloudy
10:53 AM 80.1 °F 82.1 °F 66.0 °F 62% 30.26 in 10.0 mi ENE 10.4 mph - N/A   Mostly Cloudy
11:53 AM 81.0 °F 83.0 °F 66.0 °F 60% 30.25 in 10.0 mi East 13.8 mph - N/A   Mostly Cloudy
12:53 PM 82.9 °F 85.0 °F 66.0 °F 56% 30.23 in 10.0 mi East 15.0 mph 20.7 mph N/A   Scattered Clouds
1:53 PM 81.0 °F 83.0 °F 66.0 °F 60% 30.21 in 10.0 mi East 13.8 mph - N/A   Overcast
2:53 PM 82.0 °F 83.8 °F 64.9 °F 56% 30.19 in 10.0 mi East 11.5 mph - N/A   Partly Cloudy
3:53 PM 82.0 °F 84.5 °F 66.9 °F 60% 30.19 in 10.0 mi East 12.7 mph - N/A   Scattered Clouds
4:53 PM 79.0 °F - 66.0 °F 64% 30.19 in 10.0 mi ESE 12.7 mph - N/A   Partly Cloudy
5:53 PM 78.1 °F - 66.0 °F 66% 30.19 in 10.0 mi East 12.7 mph - N/A   Partly Cloudy
6:53 PM 75.9 °F - 66.9 °F 74% 30.21 in 10.0 mi East 10.4 mph - N/A   Scattered Clouds
7:53 PM 75.0 °F - 66.9 °F 76% 30.22 in 10.0 mi East 8.1 mph - N/A   Partly Cloudy
8:53 PM 75.0 °F - 66.0 °F 73% 30.23 in 10.0 mi East 8.1 mph - N/A   Clear
9:53 PM 75.0 °F - 66.0 °F 73% 30.23 in 10.0 mi East 8.1 mph - N/A   Clear
10:53 PM 73.9 °F - 66.9 °F 79% 30.23 in 10.0 mi East 8.1 mph - N/A   Partly Cloudy
11:53 PM 73.9 °F - 66.9 °F 79% 30.22 in 10.0 mi East 6.9 mph - N/A   Mostly Cloudy